Hourly Data Report for March 26, 2006

TORONTO CITY
ONTARIO

43°40'00.000" N
79°24'00.000" W
112.50 m
6158355
71508
XTO

Download Data

Hourly Data (March 2006)
Hourly Data Report for March 26, 2006
TIME
LST
Temp Definition
°C
Dew Point Definition
°C
Rel Hum Definition
%
Precip. Amount Definition
mm

Wind Dir Definition
10's deg

Wind Spd Definition
km/h
Visibility Definition
km
Stn Press Definition
kPa
Hmdx Definition


Wind Chill Definition


Weather Definition


00:00 3.8 2.6 92   LegendMM LegendMM   100.38     LegendNANA
01:00 4.0 2.3 89   LegendMM LegendMM   100.37     LegendNANA
02:00 4.1 2.0 86   LegendMM LegendMM   100.39     LegendNANA
03:00 3.8 0.7 80   LegendMM LegendMM   100.37     LegendNANA
04:00 3.6 0.0 77   LegendMM LegendMM   100.39     LegendNANA
05:00 3.2 -0.8 75   LegendMM LegendMM   100.45     LegendNANA
06:00 2.9 -0.7 77   LegendMM LegendMM   100.52     LegendNANA
07:00 2.1 -1.4 78   LegendMM LegendMM   100.57     LegendNANA
08:00 2.3 -2.1 73   LegendMM LegendMM   100.62     LegendNANA
09:00 3.5 -2.3 66   LegendMM LegendMM   100.64     LegendNANA
10:00 5.0 -1.9 61   LegendMM LegendMM   100.65     LegendNANA
11:00 6.0 -1.5 59   LegendMM LegendMM   100.64     LegendNANA
12:00 6.4 -2.8 52   LegendMM LegendMM   100.67     LegendNANA
13:00 6.7 -3.9 47   LegendMM LegendMM   100.65     LegendNANA
14:00 7.5 -4.7 42   LegendMM LegendMM   100.61     LegendNANA
15:00 8.0 -3.7 43   LegendMM LegendMM   100.58     LegendNANA
16:00 7.4 -3.9 44   LegendMM LegendMM   100.61     LegendNANA
17:00 7.0 -5.6 40   LegendMM LegendMM   100.61     LegendNANA
18:00 6.6 -6.6 38   LegendMM LegendMM   100.65     LegendNANA
19:00 5.5 -7.5 39   LegendMM LegendMM   100.70     LegendNANA
20:00 4.8 -9.3 35   LegendMM LegendMM   100.78     LegendNANA
21:00 4.2 -8.9 38   LegendMM LegendMM   100.85     LegendNANA
22:00 3.6 -8.3 41   LegendMM LegendMM   100.87     LegendNANA
23:00 3.1 -7.5 46   LegendMM LegendMM   100.88     LegendNANA

Notes on Data Quality.

Legend

  • E = Estimated
  • M = Missing
  • NA = Not Available*
  • [empty] = Indicates an unobserved value
Date modified: